Flag for Sweden Weather past 2 weeks in Södertälje, Sweden

Now
59 °F

Sunny.


Feels Like: 59 °F
Forecast: 50 / 64 °F
Wind: 5 mph from Northeast

Location: Stockholm Bromma Airport

Current Time: Aug 31, 2014 at 11:13:52 AM

Latest Report: Aug 31, 2014 at 10:50 AM


Visibility: 10 mi

Pressure: 30.15 "Hg

Humidity: 68%

Dew point: 48 °F

Location of SödertäljeLocation

Historic Weather in Södertälje — Graph

°F

Södertälje temperature yesterday

Maximum temperature yesterday: 63 °F (at 1:20 PM)
Minimum temperature yesterday: 45 °F (at 1:50 AM)
Average temperature yesterday: 53 °F

Past Weeks' High & Low Weather Summary

 TemperatureHumidityPressure
High68 °F (Aug 16, 2:20 PM)100% (Aug 16, 11:20 PM)30.15 "Hg (Aug 16, 11:20 PM)
Low43 °F (Aug 31, 5:20 AM)46% (Aug 16, 3:20 PM)29.30 "Hg (Aug 18, 6:50 PM)
Average57 °F80%29.67 "Hg
* Reported Aug 16 9:20 AM — Aug 31 9:50 AM, Södertälje, Weather by CustomWeather, © 2014

Note: Actual official high and low records may vary slightly from our data, if they occured in-between our weather recording intervals... More about our weather records

Advertising

Södertälje weather history for previous 24 hours

 ConditionsComfort  
Time TempWeatherWind HumidityBarometerVisibility
9:50 AM
Aug 31
57 °FSunny.5 mph67%30.15 "Hg10 mi
9:20 AM57 °FPassing clouds.6 mph72%30.15 "HgN/A
8:50 AM55 °FSunny.7 mph72%30.12 "Hg10 mi
8:20 AM54 °FCool.6 mph82%30.12 "HgN/A
7:50 AM52 °FPartly sunny.6 mph88%30.12 "HgN/A
7:20 AM52 °FOvercast.5 mph88%30.12 "HgN/A
6:50 AM48 °FPartly sunny.3 mph94%30.12 "HgN/A
6:20 AM46 °FPassing clouds.3 mph93%30.12 "HgN/A
5:50 AM46 °FOvercast.2 mph93%30.12 "HgN/A
5:20 AM43 °FQuite cool.2 mph100%30.12 "HgN/A
4:50 AM45 °FQuite cool.2 mph93%30.12 "HgN/A
4:20 AM45 °FQuite cool.3 mph100%30.12 "HgN/A
3:50 AM45 °FQuite cool.2 mph100%30.12 "HgN/A
3:20 AM45 °FQuite cool.2 mph100%30.12 "HgN/A
2:50 AM46 °FCool.2 mph93%30.12 "HgN/A
2:20 AM46 °FCool.1 mph93%30.12 "HgN/A
1:50 AM46 °FCool.2 mph100%30.12 "HgN/A
1:20 AM45 °FQuite cool.No wind100%30.12 "HgN/A
12:50 AM46 °FCool.2 mph93%30.12 "HgN/A
12:20 AM46 °FCool.2 mph100%30.09 "HgN/A
11:50 PM
Aug 30
48 °FPassing clouds.2 mph94%30.09 "HgN/A
11:20 PM46 °FCool.3 mph93%30.09 "HgN/A
10:50 PM48 °FCool.1 mph94%30.09 "HgN/A
10:20 PM48 °FCool.2 mph87%30.09 "HgN/A
9:50 PM52 °FCool.3 mph77%30.09 "HgN/A
9:20 PM54 °FPassing clouds.6 mph72%30.07 "HgN/A
8:50 PM57 °FPartly sunny.7 mph63%30.07 "HgN/A
8:20 PM55 °FPartly sunny.6 mph72%30.07 "HgN/A
7:20 PM57 °FOvercast.8 mph67%30.07 "HgN/A
6:50 PM57 °FPartly sunny.8 mph67%30.07 "HgN/A
6:20 PM59 °FScattered clouds.10 mph63%30.07 "HgN/A
5:50 PM61 °FScattered clouds.10 mph63%30.07 "HgN/A
5:20 PM61 °FPassing clouds.10 mph63%30.07 "HgN/A
4:50 PM61 °FPartly sunny.9 mph72%30.07 "HgN/A
4:20 PM61 °FBroken clouds.10 mph72%30.07 "HgN/A
3:50 PM61 °FBroken clouds.9 mph72%30.07 "HgN/A
3:20 PM63 °FPartly sunny.8 mph68%30.04 "HgN/A
2:50 PM63 °FPartly sunny.7 mph73%30.04 "HgN/A
2:20 PM63 °FPartly sunny.7 mph68%30.04 "HgN/A
1:50 PM61 °FPartly sunny.7 mph72%30.04 "HgN/A
1:20 PM63 °FPartly sunny.7 mph68%30.04 "HgN/A
12:50 PM61 °FPartly sunny.7 mph72%30.04 "HgN/A
12:20 PM59 °FPartly sunny.6 mph77%30.07 "HgN/A
11:50 AM59 °FBroken clouds.3 mph82%30.07 "HgN/A
11:20 AM59 °FPartly sunny.2 mph82%30.07 "HgN/A
Weather by CustomWeather, © 2014

See weather overviewHow to use our weather pages